Wind_Speed
6 5 7 13 15 16 14 10 8 5 5 4 4 5 6 5 6 7 7 6 7 8 9 13 13 10 10 13 17 17 17 16 15 15 14 14 14 14 15 15 15 16 14 18 25 29 31 32 32 33 33 34 35 35 36 37 37 37 36 35 36 35 35 35 34 33 33 32 31 31 32 33 31 30 28 27 26 24 23 22 21 21 21 22 21 21
6 7 14 18 13 9 8 7 7 8 10 7 4 4 5 6 8 8 7 5 4 6 8 10 11 10 11 13 15 17 17 16 17 18 17 17 17 15 16 18 17 14 11 14 19 25 29 30 32 33 32 34 34 34 37 38 38 38 37 37 37 36 36 37 37 36 35 35 35 33 34 34 32 31 31 29 27 26 24 22 21 22 22 22 21 21
7 11 19 16 6 5 6 6 7 10 10 8 4 4 5 4 3 7 8 5 3 5 5 7 10 10 11 13 15 18 18 17 18 20 19 19 18 16 17 18 17 14 12 14 16 20 27 30 32 32 32 34 36 36 37 38 38 38 37 37 36 36 37 39 39 38 37 37 36 34 34 34 32 31 32 29 26 26 25 22 22 23 23 23 21 20
7 11 15 10 6 7 7 6 9 8 7 7 5 5 7 4 1 5 7 5 4 5 4 6 8 7 8 9 12 18 18 16 18 20 19 19 19 19 20 18 17 18 17 16 16 17 23 28 30 32 32 34 35 35 36 37 38 38 39 38 38 38 38 39 39 39 38 36 34 33 31 31 30 29 30 28 25 26 26 24 23 25 25 24 21 19
7 6 7 10 9 11 10 8 8 7 6 8 8 8 8 6 8 8 4 4 3 4 2 5 3 4 6 9 10 12 13 13 16 18 16 16 18 18 18 17 17 19 19 18 18 17 19 24 29 32 33 34 34 35 37 39 39 39 40 41 40 39 39 39 40 40 37 34 32 30 27 26 25 24 25 26 26 27 28 27 27 26 27 26 23 20
11 7 8 13 12 12 12 10 8 9 7 7 11 13 12 10 12 7 2 4 4 4 2 5 3 5 5 12 13 10 11 13 13 15 17 17 16 15 15 16 16 17 17 18 19 19 19 23 27 31 33 34 34 36 38 41 42 40 41 41 40 39 39 40 40 40 37 34 32 31 27 25 24 23 25 29 31 30 30 30 29 27 26 27 25 22
9 8 8 12 14 12 12 10 10 10 6 8 13 14 12 12 12 5 0 2 3 5 5 3 4 4 4 11 14 13 15 17 14 16 19 17 15 15 15 16 17 16 16 16 17 17 18 21 25 27 33 36 36 38 39 40 41 41 40 40 41 40 39 40 40 40 39 35 34 34 33 32 31 29 30 33 34 32 31 30 29 27 26 28 27 25
8 11 10 11 13 13 11 11 12 12 8 10 10 9 9 12 14 8 3 4 4 4 6 3 3 3 3 10 14 15 17 18 16 17 18 17 17 18 18 17 18 18 18 17 17 18 18 21 25 29 34 38 38 38 39 39 40 41 40 41 41 40 39 40 40 41 40 38 36 36 36 34 34 33 33 33 33 32 30 29 28 26 26 27 27 26
9 14 14 12 11 10 12 13 12 13 11 8 4 6 7 10 12 7 4 5 4 3 7 7 3 3 4 7 11 14 15 17 18 19 20 20 20 20 19 19 19 19 19 18 19 20 20 23 29 34 36 38 39 38 39 40 40 41 41 41 41 40 40 40 40 41 42 41 38 37 36 34 34 34 31 30 31 31 30 28 27 26 26 27 27 27
7 11 13 13 10 8 10 12 11 12 12 4 5 6 6 8 9 4 6 5 3 4 9 10 4 4 6 4 7 10 13 16 17 18 19 21 21 20 20 20 19 18 17 17 19 19 21 27 34 36 36 36 38 38 40 40 39 40 40 40 40 40 40 40 41 42 43 42 39 37 36 35 33 32 29 28 29 30 30 29 28 26 26 26 27 27
5 5 10 12 11 8 6 8 10 14 12 4 5 5 4 6 4 2 4 4 4 6 10 13 8 6 6 5 7 10 14 17 16 16 17 17 19 20 19 18 18 17 16 17 18 18 21 28 32 32 32 35 36 37 38 38 38 39 39 39 41 42 41 41 42 42 43 42 40 38 37 36 34 32 30 28 29 29 30 30 30 28 26 26 27 27
9 6 6 7 10 10 7 7 9 12 13 7 5 5 3 4 2 0 2 3 6 8 8 12 9 8 8 6 6 12 17 21 20 18 19 19 20 20 19 18 17 17 17 17 18 17 18 21 23 26 30 33 35 36 37 38 39 39 39 40 41 41 41 41 42 43 43 42 41 40 38 37 36 33 31 31 31 31 31 31 31 29 27 26 27 27
9 10 7 5 9 13 10 8 7 8 11 9 6 6 5 3 2 4 4 3 6 6 6 8 6 7 9 6 9 15 19 22 21 20 20 23 23 21 20 19 17 16 17 17 16 16 16 16 18 22 28 31 33 36 38 39 38 38 39 41 41 41 42 41 41 42 42 42 42 41 39 38 36 34 34 33 33 33 33 32 31 30 29 28 28 28
6 7 11 10 7 11 13 9 7 7 9 10 8 7 7 5 5 7 5 3 4 4 8 8 5 4 5 5 11 17 20 23 22 21 21 21 23 23 22 20 18 17 17 16 16 15 15 16 17 22 27 30 32 35 38 38 39 38 39 41 41 42 43 43 42 42 42 42 43 42 41 39 37 36 35 35 34 34 34 33 33 33 32 31 30 30
7 8 11 13 8 8 13 12 9 7 7 11 9 7 7 7 6 6 4 4 4 3 7 7 5 5 5 5 10 17 20 22 21 21 19 17 20 20 19 19 18 18 17 15 15 16 17 18 19 23 28 30 32 35 37 38 39 39 39 41 42 42 43 43 42 42 43 43 43 42 41 40 38 37 36 35 35 34 34 34 34 35 35 34 33 32
7 7 5 10 9 10 13 13 10 9 7 9 8 8 10 7 5 3 4 4 4 3 5 5 4 5 4 5 6 11 16 18 20 20 17 14 15 14 13 16 17 16 16 16 15 17 18 18 20 24 27 29 32 34 36 37 39 40 40 41 43 44 44 44 43 43 44 43 42 41 41 40 39 38 36 35 34 34 34 35 34 35 35 36 35 34
5 6 4 7 8 11 16 13 11 11 7 5 8 10 7 6 6 5 5 2 3 4 5 3 4 4 2 5 5 7 11 14 17 18 17 15 14 13 13 15 17 16 16 16 16 18 18 17 20 25 28 29 32 34 37 39 41 42 42 42 43 43 43 44 44 44 44 43 42 41 41 40 39 38 37 36 36 35 35 34 35 35 34 35 35 34
5 8 11 10 11 12 12 11 12 13 8 4 7 9 5 6 5 5 4 3 3 6 5 2 5 6 4 5 4 6 9 11 14 16 18 17 16 16 16 16 18 18 18 19 19 19 18 18 20 25 29 32 35 37 39 41 42 43 43 43 43 42 42 43 44 44 44 43 41 41 40 40 39 39 38 37 36 34 33 34 34 34 34 34 34 33
5 7 9 6 6 8 7 9 10 11 13 9 5 7 7 5 7 6 4 5 5 4 4 4 4 6 6 6 5 9 10 9 11 14 17 18 17 17 17 18 20 19 18 18 18 16 16 16 19 24 29 33 36 38 39 40 40 40 41 43 44 44 44 43 43 42 41 41 41 40 40 40 40 39 38 37 35 33 33 34 35 35 35 34 34 33
5 3 6 4 4 10 7 7 8 9 13 12 5 6 7 6 6 6 3 3 4 4 3 3 4 4 6 6 8 12 12 11 11 12 14 17 17 17 17 17 18 18 17 17 16 15 16 18 21 27 32 34 36 37 37 37 38 38 40 40 41 42 42 41 41 41 40 40 40 39 39 39 39 39 38 37 35 34 34 35 35 35 35 34 34 34
4 1 5 9 11 8 4 6 8 9 8 9 8 8 8 4 3 5 3 3 4 4 3 3 5 5 5 5 9 12 12 12 12 13 14 15 16 17 18 18 17 17 18 18 17 17 18 18 21 28 32 33 33 33 33 35 37 38 38 38 39 39 38 39 40 40 40 39 39 39 38 38 39 39 38 37 36 36 36 35 34 35 34 33 33 34
3 1 4 9 8 5 7 6 3 2 3 5 7 7 9 5 4 5 6 2 4 3 4 4 5 7 6 5 8 10 10 10 11 14 14 14 17 17 18 19 19 18 18 19 18 18 18 17 19 25 28 28 29 30 32 34 35 36 36 37 38 38 38 39 40 40 40 39 39 39 39 39 39 39 38 37 36 36 36 35 34 33 32 32 33 33
4 2 4 8 7 9 17 17 11 10 9 7 7 7 8 5 6 8 8 4 4 3 3 2 3 7 6 6 9 10 11 11 11 13 13 14 16 17 18 19 19 18 19 19 19 17 17 17 19 23 25 27 29 31 33 34 34 35 36 37 37 37 38 39 40 40 40 39 39 39 39 39 39 38 38 37 37 37 36 35 34 33 32 33 33 32
5 2 3 7 7 10 16 14 10 9 6 4 6 6 7 8 8 8 6 5 5 5 5 3 5 8 7 4 6 7 9 10 9 10 13 13 13 15 18 18 17 17 18 19 18 17 16 16 17 17 19 23 27 29 31 32 33 34 35 36 36 37 38 39 39 39 39 39 39 39 39 39 38 37 37 38 38 37 37 35 34 33 34 34 33 33
4 2 2 5 5 6 8 7 4 2 2 3 5 6 8 13 11 4 2 4 5 7 9 7 7 9 6 1 1 4 5 7 7 8 13 13 12 14 15 14 15 17 17 17 17 16 15 15 15 15 15 20 25 28 30 32 33 33 35 36 36 37 38 39 39 38 39 39 39 38 38 39 38 38 38 39 38 38 37 36 35 34 35 35 35 35
3 1 0 1 2 4 5 4 1 4 6 5 6 8 10 11 13 7 3 4 7 6 8 8 8 9 8 6 7 6 4 7 8 9 12 14 15 16 14 12 14 15 16 17 17 15 15 15 16 16 16 20 25 27 29 31 32 33 34 35 37 37 37 38 38 38 38 38 37 37 37 38 38 38 39 39 38 38 37 36 36 35 35 36 36 36
2 2 3 5 6 7 7 7 6 6 8 9 11 13 14 13 11 8 6 5 7 5 5 9 8 9 14 14 14 11 5 7 9 8 11 13 14 15 13 13 14 14 15 16 16 15 16 16 17 18 17 20 26 28 29 30 31 33 33 35 36 36 36 37 38 38 38 37 37 37 38 39 39 39 39 39 39 38 37 37 37 37 36 37 37 37
1 3 4 7 10 11 12 15 15 13 12 13 14 15 15 14 12 10 11 8 7 7 6 8 6 10 16 16 17 16 8 6 8 8 12 14 13 13 13 14 15 15 14 14 15 16 17 17 17 17 17 19 24 26 27 29 31 33 33 35 36 36 37 37 38 38 38 38 38 38 38 39 39 39 39 38 38 37 37 37 37 37 37 37 37 37
2 3 4 7 10 12 14 17 18 15 13 14 14 16 18 17 14 13 13 10 9 8 9 7 8 12 16 16 18 15 7 5 8 8 11 12 13 13 13 14 15 15 15 15 16 17 17 17 17 17 17 18 22 24 25 27 30 31 32 34 35 36 37 37 38 38 38 37 37 38 38 38 37 38 38 37 37 37 37 36 36 37 37 37 37 38
2 3 4 5 9 14 16 16 16 13 11 12 13 14 17 18 16 16 11 10 11 10 9 8 11 13 14 13 13 10 5 7 6 4 6 9 11 12 14 15 15 16 17 17 17 17 17 18 18 18 17 16 19 23 25 27 29 31 32 33 34 35 36 36 36 36 36 36 37 38 38 37 37 36 36 37 37 37 37 36 36 36 37 37 38 38
2 2 3 4 7 11 12 10 9 9 9 11 9 8 11 12 12 15 11 7 9 7 5 7 10 11 10 7 5 5 3 3 2 1 6 9 12 13 14 15 15 16 16 18 18 18 17 17 16 16 16 16 20 25 27 29 30 32 32 32 33 34 34 35 34 34 34 35 36 36 36 36 35 35 36 37 38 37 37 37 36 36 37 37 38 38
2 2 3 4 4 7 7 7 12 13 9 7 6 12 14 10 2 6 3 1 3 5 1 2 6 7 7 3 1 4 6 6 4 3 4 6 9 13 15 15 15 16 16 17 17 17 16 16 15 15 16 17 22 27 29 29 29 30 31 33 33 32 33 33 33 33 34 35 35 34 34 34 34 34 35 36 37 37 37 37 37 36 36 37 37 38
3 2 2 2 3 5 6 10 15 11 6 4 2 9 13 8 5 8 7 9 4 2 4 4 6 6 6 4 3 5 8 7 6 5 3 6 7 11 15 15 15 16 16 17 16 16 16 16 15 17 18 20 25 30 32 32 31 32 33 32 31 31 31 32 32 32 33 33 33 33 34 34 34 35 36 36 37 37 37 36 37 37 38 38 38 37
4 3 2 0 2 5 10 14 10 2 0 2 2 7 12 10 10 13 9 9 9 4 1 2 5 5 4 5 5 4 8 7 6 7 6 2 3 7 10 12 13 15 15 15 15 15 15 14 13 15 19 24 28 31 32 32 31 30 29 29 30 30 31 31 30 31 32 33 33 34 35 35 35 36 37 37 37 37 36 37 38 39 39 38 37 37
4 3 2 2 2 4 9 9 1 5 2 2 3 8 12 9 8 9 7 11 15 12 10 7 6 6 6 6 5 4 6 10 12 13 13 10 4 2 5 5 7 9 9 10 11 11 11 11 11 12 16 21 24 24 25 26 25 25 25 28 29 29 30 30 30 32 34 35 35 35 36 35 36 36 37 37 37 36 37 38 38 38 38 38 38 39
5 3 2 2 2 2 5 4 3 3 4 3 1 8 12 9 8 8 7 14 18 15 12 10 8 8 7 5 4 3 2 8 15 15 15 14 10 6 6 5 6 8 7 7 9 8 8 10 11 12 14 17 19 20 21 22 23 24 25 27 28 27 28 29 29 31 33 33 34 35 36 36 36 37 37 37 37 36 37 37 38 38 38 38 39 39
7 4 2 2 2 1 3 4 3 2 5 2 1 7 9 7 9 8 4 9 15 15 12 11 10 11 10 7 6 6 7 6 14 12 14 15 13 9 8 8 8 11 10 10 11 12 14 17 18 18 18 18 18 19 20 21 23 24 24 25 26 27 28 28 28 30 32 33 34 35 36 37 37 37 38 37 36 36 37 38 38 39 39 38 38 38
8 5 2 1 1 0 2 3 3 1 1 1 6 11 9 7 9 8 3 4 12 16 15 12 11 12 10 9 9 9 6 6 10 7 11 14 12 11 11 10 10 12 12 12 14 16 18 22 22 22 23 20 16 17 22 24 24 24 22 23 24 25 26 26 27 29 30 32 35 36 38 39 39 39 38 37 37 37 38 39 39 39 39 39 39 39
9 7 3 3 3 2 1 2 3 1 2 5 13 17 14 10 8 6 1 3 10 16 16 12 13 13 11 11 11 7 1 7 6 5 8 11 11 10 10 10 11 12 13 15 18 18 20 24 25 24 24 21 15 11 18 25 26 24 23 23 23 24 24 26 27 29 31 33 36 38 39 39 39 39 38 37 38 38 39 40 40 40 40 40 40 40
8 6 4 5 5 4 4 3 2 1 3 9 16 18 17 12 6 1 3 3 9 15 15 12 13 13 12 12 11 8 6 7 4 4 7 9 8 9 9 10 10 11 12 16 20 22 23 26 26 24 22 19 17 15 15 20 22 20 19 21 22 21 22 24 27 30 32 34 36 38 39 39 39 39 39 38 39 39 40 40 40 39 38 38 38 37
4 4 4 4 4 5 5 3 1 1 3 10 16 18 18 11 2 4 4 2 9 13 12 11 13 13 12 12 9 7 7 7 6 6 8 8 9 10 10 9 10 12 13 15 19 23 25 26 26 24 21 20 21 21 20 20 18 13 10 11 10 7 9 14 20 25 28 29 32 35 37 38 38 39 39 40 40 39 39 39 38 37 37 37 36 35
1 1 1 2 3 3 4 2 1 1 2 10 16 17 14 5 3 5 3 3 8 11 10 11 13 12 12 12 9 6 7 9 9 9 9 10 10 10 10 10 11 12 13 15 19 22 23 23 24 23 23 24 26 24 22 23 21 16 15 13 10 7 3 2 8 15 22 27 29 31 35 36 37 38 39 39 38 37 36 37 37 36 36 35 33 33
2 1 1 1 1 2 0 2 2 1 4 13 15 11 10 8 5 4 4 4 6 8 9 10 11 12 12 10 9 9 9 11 11 10 9 10 10 10 10 10 10 10 11 13 16 19 21 21 21 22 23 25 27 24 22 22 19 16 16 15 13 11 8 6 3 3 13 23 29 31 34 36 37 38 37 37 37 36 35 36 35 34 33 33 31 31
3 2 1 2 3 3 2 3 2 1 3 10 10 7 9 9 6 5 5 5 6 7 7 8 9 11 12 10 9 10 11 11 11 9 9 10 9 9 9 9 9 9 10 12 14 17 20 20 19 21 23 25 25 24 21 20 19 17 16 15 14 13 11 9 7 6 3 13 24 30 33 35 37 38 38 38 37 35 33 32 32 32 32 31 30 29
5 5 2 1 3 3 1 1 2 0 2 6 7 7 9 11 10 8 7 5 7 8 7 7 9 11 12 11 10 10 11 11 10 9 9 8 8 9 9 9 9 10 10 13 15 17 19 19 19 21 22 22 24 23 21 20 19 17 16 16 16 15 14 12 10 9 8 4 12 22 28 32 34 36 37 37 36 35 32 30 29 29 29 30 29 28
7 8 4 2 5 6 2 2 3 4 4 4 5 6 8 10 9 10 8 6 7 8 8 8 9 10 11 11 10 9 10 11 10 9 9 8 8 9 9 8 9 11 11 12 13 15 17 18 19 19 19 19 21 20 19 18 18 16 14 15 16 15 15 14 13 11 11 9 7 12 20 26 29 31 32 33 33 34 33 31 30 29 28 28 28 27
7 9 5 4 7 6 1 2 5 4 2 1 4 6 8 9 9 9 9 8 8 9 10 10 11 10 10 11 11 10 10 11 10 9 8 8 8 9 8 8 8 9 10 10 11 14 15 15 14 15 15 15 17 18 17 17 17 15 14 14 15 14 14 14 14 13 12 12 10 8 14 21 25 26 27 27 29 30 30 30 30 28 26 26 25 24
7 7 5 6 8 6 4 4 8 6 3 5 4 5 6 8 10 11 11 11 11 11 11 11 11 11 10 11 12 11 11 11 11 9 9 8 8 8 7 7 7 8 11 13 13 14 14 12 12 12 13 13 15 16 16 16 16 15 15 14 14 13 13 13 13 13 12 12 11 8 10 17 20 21 22 23 24 25 25 25 27 26 26 26 25 24
7 6 6 7 8 6 5 5 11 10 1 8 7 5 6 7 10 12 13 14 13 12 12 11 11 11 10 10 11 12 12 12 11 10 9 9 8 8 8 7 8 9 11 12 14 15 15 13 13 13 13 13 15 16 16 16 16 15 14 14 13 13 13 13 12 12 10 10 10 7 7 11 15 19 21 22 22 20 18 19 21 23 23 24 25 25
6 6 6 6 5 4 4 6 9 8 4 4 1 4 6 8 10 10 12 14 13 12 11 10 10 11 11 10 11 10 11 11 11 10 9 8 8 9 9 8 8 10 10 11 13 15 14 13 13 13 13 13 14 15 15 15 14 14 13 13 12 13 14 13 12 11 9 8 6 5 7 11 15 19 22 23 23 21 16 13 14 17 18 19 20 22
6 6 7 6 6 7 9 10 9 7 9 11 9 6 5 6 8 9 9 11 12 11 10 7 7 9 10 10 11 11 9 10 10 9 8 8 8 10 11 10 9 8 9 9 11 11 11 11 11 11 12 13 14 14 14 13 13 13 13 13 12 12 13 12 11 10 9 7 4 5 10 14 17 19 21 22 22 22 19 15 11 10 11 13 15 17
Wind_Direction
171 182 199 209 215 212 213 210 204 239 263 228 182 204 221 231 254 241 246 253 189 183 198 195 201 201 189 184 180 176 177 179 177 178 182 181 182 187 191 194 193 194 194 188 189 191 189 188 186 185 187 187 188 189 190 191 193 194 194 194 196 197 198 199 201 202 204 205 207 209 212 215 217 217 217 218 218 221 220 218 220 217 213 212 215 216
171 198 219 219 214 207 212 204 188 212 242 252 225 225 239 230 249 253 248 263 206 200 216 197 196 205 194 187 183 175 177 182 181 182 185 185 186 189 192 197 197 194 187 182 188 190 189 189 188 186 187 187 187 188 190 191 193 194 195 195 196 196 197 199 201 202 203 205 205 205 208 212 216 215 214 215 217 219 219 219 219 214 211 212 215 219
188 218 226 218 190 180 208 198 187 204 222 238 236 238 255 238 264 278 260 258 217 210 227 190 191 211 201 188 183 179 182 187 186 185 186 185 187 190 193 197 196 190 186 185 188 188 188 188 187 187 188 188 189 190 191 192 192 193 195 197 197 197 197 199 201 202 204 207 207 207 207 209 212 213 212 214 217 217 219 220 218 214 214 215 217 219
192 228 223 199 165 189 213 208 196 205 217 225 222 224 244 239 192 255 257 251 213 214 220 182 191 220 206 188 188 188 188 187 187 190 189 187 188 192 194 195 192 190 191 189 188 187 188 187 187 187 189 190 190 190 191 192 192 193 195 197 197 198 199 199 201 203 205 207 208 209 209 209 210 212 212 214 218 219 220 221 220 218 218 219 219 217
220 243 185 165 183 197 210 222 204 202 224 225 222 223 233 235 223 231 285 314 276 259 225 155 179 251 203 189 200 199 194 191 189 190 193 196 196 194 193 194 195 195 194 190 187 187 187 188 188 188 189 189 191 191 191 192 193 194 196 197 198 198 199 200 201 203 204 205 206 206 206 207 208 210 210 211 214 218 221 222 221 222 222 222 221 218
234 236 163 170 191 197 206 220 209 202 223 234 228 225 222 233 239 239 336 319 299 293 264 143 172 277 222 198 200 190 193 202 195 191 196 200 200 196 194 196 199 200 199 195 191 188 187 188 188 188 189 190 192 193 193 194 195 195 196 197 197 198 199 200 201 202 202 202 202 200 198 199 201 205 207 208 212 216 219 220 222 223 224 224 223 221
225 213 178 186 192 195 207 218 215 200 207 238 229 222 218 234 247 237 71 271 243 257 263 167 183 253 246 213 205 186 192 201 196 197 201 199 197 196 197 198 197 199 200 201 199 193 188 187 187 188 190 191 194 194 194 195 196 196 196 196 197 198 199 200 200 200 201 201 201 201 200 201 201 203 208 212 214 216 219 219 221 224 223 225 226 225
198 197 192 200 195 195 205 214 210 190 200 235 224 207 206 231 244 228 198 250 248 271 285 271 201 222 236 222 210 191 192 199 197 202 204 200 200 199 199 199 196 198 198 197 199 195 191 189 190 191 192 193 195 193 193 194 195 196 196 196 197 198 199 200 200 200 201 201 202 203 204 204 205 206 210 213 214 217 219 218 220 224 224 225 227 228
188 202 195 197 201 201 208 212 199 187 215 235 185 181 199 228 243 216 181 239 257 288 283 271 223 227 257 229 209 195 193 200 202 205 205 201 202 201 201 200 197 198 198 197 198 196 193 192 192 193 193 194 194 192 193 194 195 196 196 196 197 198 199 200 200 200 201 203 204 204 205 206 209 210 212 213 213 215 217 218 220 223 225 225 226 227
196 204 187 194 212 209 211 215 193 193 224 217 136 181 210 234 243 193 177 220 237 238 254 256 211 208 273 245 193 194 199 203 205 209 207 203 202 202 202 202 199 197 197 199 200 199 197 195 195 194 193 193 193 193 194 194 195 195 195 195 196 198 199 199 200 201 202 204 204 205 206 207 209 210 211 212 213 213 215 217 219 222 225 225 224 224
230 200 177 197 218 206 197 213 201 204 217 177 145 202 242 253 247 160 178 191 225 239 245 248 219 191 259 260 188 193 201 202 204 211 210 204 204 204 204 203 200 197 196 199 201 201 201 199 196 193 191 192 192 193 194 194 194 194 194 194 195 198 199 199 200 201 202 203 204 206 207 209 210 208 207 208 210 211 213 215 218 221 223 224 225 224
234 225 194 198 208 196 182 206 210 210 213 198 179 201 250 284 321 119 172 165 221 239 245 244 225 201 237 255 205 200 203 202 204 207 204 201 203 203 204 204 200 198 198 198 200 200 199 198 196 193 192 192 190 191 192 193 194 193 193 194 195 197 199 200 200 201 202 203 204 207 208 210 211 209 207 207 209 210 211 215 216 218 221 222 224 224
222 226 229 219 204 195 188 202 209 205 208 206 191 181 202 238 242 222 201 184 222 238 249 236 205 207 234 236 203 199 206 209 209 208 202 199 200 200 200 202 200 199 198 198 200 199 195 193 194 193 193 191 190 190 191 192 192 192 193 194 194 196 198 199 200 201 202 203 205 207 208 211 212 211 211 210 211 211 212 215 216 217 218 219 220 221
211 221 223 224 216 197 194 195 197 199 198 200 195 182 191 200 210 221 218 226 229 235 249 232 188 210 244 230 199 192 203 212 212 214 208 201 199 198 197 198 198 198 197 199 199 197 195 195 194 193 192 191 191 192 191 191 192 191 193 194 194 197 198 199 200 200 202 203 205 207 208 210 211 212 213 213 214 214 215 216 217 218 218 218 220 222
223 223 210 212 206 183 199 203 186 178 187 201 196 180 197 201 196 207 199 203 211 230 248 230 196 197 200 220 202 188 198 206 210 217 214 206 204 200 195 193 196 197 195 197 198 197 199 197 193 193 192 192 192 192 192 192 192 191 192 194 195 197 197 198 199 200 202 204 206 207 208 209 211 213 215 216 217 217 217 218 218 219 220 221 223 225
260 240 197 211 208 177 199 210 180 164 187 205 189 187 211 196 157 187 203 187 174 206 238 221 216 215 208 253 230 189 195 198 204 214 213 211 211 201 194 194 196 198 195 195 196 198 201 196 192 193 193 193 192 192 192 192 192 192 193 194 196 197 197 197 198 199 202 204 206 207 208 209 211 213 215 216 218 219 219 219 219 220 221 223 225 227
308 279 326 312 268 209 202 202 183 181 186 181 189 204 204 145 142 206 233 207 132 196 229 219 233 250 265 279 255 185 191 194 196 204 206 208 204 194 194 196 197 198 195 194 195 197 197 192 191 194 193 192 192 192 193 194 193 193 194 194 196 197 197 197 198 200 202 203 205 207 208 210 211 212 215 216 218 219 219 220 220 221 222 223 225 227
346 291 297 298 269 246 220 201 198 195 176 152 198 198 134 108 159 196 217 234 196 216 251 252 215 208 200 250 241 180 191 195 191 196 201 201 195 192 197 198 197 197 195 195 197 197 194 190 191 193 193 193 193 193 194 195 194 194 195 195 195 196 197 198 198 200 202 202 204 206 208 209 211 212 214 217 218 218 218 220 221 221 222 223 224 226
339 300 288 251 233 290 281 214 211 205 198 204 195 156 139 168 198 185 192 215 207 221 273 284 237 206 200 223 209 192 201 197 187 194 201 198 192 193 198 198 197 197 196 197 199 196 192 191 191 191 194 195 195 195 195 194 194 194 196 196 197 197 198 198 199 200 202 202 204 206 208 210 211 212 214 216 217 217 218 219 221 221 222 223 223 224
323 305 292 299 332 330 306 216 208 209 208 207 177 149 172 196 197 189 186 183 189 208 238 264 262 231 226 214 186 192 203 195 181 189 202 202 196 194 196 198 197 196 197 197 197 195 191 192 192 192 194 195 195 195 194 193 193 195 196 197 198 199 198 198 199 200 202 203 204 206 208 210 211 212 214 215 216 216 218 220 220 221 222 222 223 224
328 352 290 309 333 330 266 209 203 205 206 202 195 188 193 194 177 197 207 144 158 186 190 219 253 251 252 224 190 193 202 197 181 181 198 204 200 197 195 197 196 194 197 197 194 193 193 192 192 193 195 194 194 194 192 192 194 195 196 197 198 198 197 197 198 200 202 203 204 206 207 209 211 212 214 215 215 217 219 220 220 221 222 222 224 225
314 352 294 295 321 307 255 266 283 289 285 235 221 206 200 192 142 183 227 203 151 172 173 188 245 259 250 209 195 198 204 206 186 178 193 202 200 200 199 198 196 194 196 197 195 194 192 190 190 192 192 191 190 191 191 193 194 195 195 196 197 197 196 197 198 200 202 202 204 206 207 209 210 212 213 214 216 218 219 220 221 221 222 222 224 226
292 283 288 280 283 268 261 271 291 293 284 268 255 226 202 188 160 189 220 211 183 202 178 164 256 267 251 204 196 202 205 211 198 179 187 200 200 200 201 199 197 194 196 195 194 192 189 188 188 187 186 186 188 190 191 192 193 195 196 196 196 196 197 198 198 200 201 202 204 206 207 209 210 211 212 213 216 218 219 221 221 221 222 222 224 226
311 305 311 298 291 278 269 266 265 256 245 262 274 242 204 201 198 202 202 178 185 208 202 226 262 266 268 219 204 221 221 220 209 182 187 199 202 203 202 197 194 195 197 195 193 191 187 184 184 183 183 185 188 190 190 191 193 194 195 195 196 197 198 198 199 200 200 201 204 206 207 208 209 210 211 213 215 218 219 220 221 221 222 223 223 225
321 341 5 337 323 296 273 253 244 274 352 327 293 275 239 217 202 190 132 158 201 209 195 206 245 254 269 305 259 282 267 242 226 194 195 198 198 206 205 193 190 195 196 194 191 187 182 179 179 181 185 186 187 189 190 191 192 193 194 195 196 198 198 198 199 199 200 202 203 204 206 207 208 209 211 213 215 217 218 219 220 221 222 222 223 225
292 299 4 329 285 249 239 225 222 352 343 310 296 310 294 246 212 187 127 173 217 213 188 198 233 258 274 284 275 270 258 254 244 209 204 204 197 202 200 185 188 194 192 190 186 182 179 178 180 183 185 186 187 188 189 190 191 193 194 195 197 198 197 198 199 199 200 202 203 204 206 207 208 209 211 213 214 216 217 217 218 220 221 222 223 224
274 253 225 221 238 249 265 279 290 312 307 290 294 303 301 285 252 205 156 185 203 171 190 215 218 249 265 267 266 260 246 264 260 214 204 210 201 197 190 180 186 190 189 186 181 177 177 178 182 184 185 187 188 188 188 188 190 192 193 195 197 197 197 197 198 199 200 202 203 204 206 207 208 210 211 213 215 216 217 217 218 219 220 222 222 223
281 264 253 239 244 254 266 276 284 290 281 271 279 283 281 287 278 229 198 191 160 150 222 239 197 224 252 255 257 261 263 278 264 216 202 205 195 189 185 180 184 186 184 183 177 176 178 180 182 184 185 187 186 186 187 188 191 193 193 195 196 196 197 196 197 198 200 201 203 205 207 208 209 210 212 213 215 216 217 218 218 219 220 221 222 223
238 254 270 260 265 270 270 272 273 272 264 257 259 263 268 276 272 246 220 184 158 180 224 226 186 215 242 248 253 260 262 255 247 222 215 206 184 179 180 178 182 182 178 178 177 178 181 181 182 183 185 185 183 183 184 188 192 193 194 196 196 196 197 196 196 198 199 200 203 205 207 208 209 211 212 213 214 216 217 218 219 220 221 221 222 223
240 253 274 285 290 284 275 267 261 257 263 267 260 257 264 265 254 249 233 181 176 203 215 200 197 220 238 244 256 272 266 245 239 218 229 210 177 173 177 178 182 181 177 178 180 182 183 183 183 183 182 180 179 181 184 188 192 193 195 196 196 196 197 195 195 197 198 201 204 206 207 207 208 210 211 212 213 215 216 217 219 220 221 222 223 224
273 270 296 317 311 292 280 274 276 277 269 267 279 304 300 279 244 233 231 195 188 211 232 216 213 235 251 243 261 306 325 303 289 214 222 205 178 174 177 179 181 178 177 180 180 182 183 182 182 181 178 179 181 183 186 190 192 193 195 196 196 196 195 194 195 196 198 202 205 206 206 207 208 209 210 212 213 214 215 216 218 220 221 222 223 224
281 286 322 350 328 291 288 316 322 314 292 267 317 351 334 318 227 191 211 43 182 193 200 218 216 246 268 262 328 15 34 28 3 331 269 232 188 174 175 179 180 178 181 184 182 181 181 178 178 178 179 182 183 185 189 191 191 193 196 196 196 195 193 194 195 196 199 203 205 205 205 206 207 208 210 212 213 214 215 215 217 219 221 222 223 223
247 266 330 5 311 280 295 321 317 316 320 285 326 2 341 334 65 86 50 19 7 165 154 190 224 254 278 306 357 54 61 42 14 9 320 262 219 187 180 178 178 180 182 182 180 178 177 177 179 181 182 183 185 189 192 191 191 194 196 195 194 193 192 193 195 195 199 203 203 203 204 205 206 208 210 212 213 214 214 214 216 218 220 222 223 224
239 256 291 315 281 286 301 313 308 267 128 244 162 32 355 353 50 65 51 21 10 16 66 236 262 293 338 358 358 63 87 76 47 30 18 332 229 199 190 182 181 182 182 180 180 178 177 178 178 178 181 185 189 192 192 192 194 195 194 192 192 192 191 192 193 194 199 202 203 203 204 205 205 207 210 212 213 213 213 214 216 218 219 221 223 223
241 250 254 217 216 282 301 314 289 161 200 243 118 37 1 354 32 50 50 30 20 13 8 355 328 345 24 29 9 28 84 86 68 41 26 20 23 133 151 156 162 165 166 166 165 166 166 165 165 169 178 186 189 189 189 191 192 191 190 191 192 191 191 191 191 194 199 202 203 203 204 204 205 207 210 212 212 212 213 214 216 217 219 220 221 223
231 238 253 244 231 274 310 315 184 194 308 318 85 15 4 1 359 3 27 26 17 10 5 356 343 352 4 2 354 328 336 64 61 42 22 17 19 45 84 97 111 120 125 131 135 138 138 139 141 147 160 172 177 180 183 186 186 185 188 191 192 192 192 192 192 195 199 202 202 203 204 204 205 207 210 211 210 211 212 214 216 217 218 219 221 223
219 229 261 257 217 229 309 296 264 299 341 348 357 352 352 344 332 333 4 20 10 5 1 355 354 357 350 337 331 294 288 32 54 33 10 14 16 29 60 79 93 100 101 102 105 109 115 122 129 134 143 153 164 175 181 183 184 186 188 191 193 194 195 195 194 196 199 202 203 204 205 205 206 207 209 210 209 210 212 214 216 217 217 218 220 222
212 216 230 255 235 345 324 302 309 326 238 286 324 323 315 298 297 292 262 21 7 359 352 356 7 4 352 347 337 302 291 43 51 15 357 7 10 24 49 65 80 91 96 100 101 100 104 111 118 125 132 136 147 171 183 185 185 187 189 192 195 197 199 201 201 199 200 202 205 206 206 207 207 208 209 209 209 210 213 215 216 217 217 217 218 221
212 217 232 261 267 297 292 277 301 260 218 320 324 315 309 306 295 277 198 51 6 349 341 354 18 14 5 3 351 331 52 81 60 0 352 2 6 21 41 53 66 78 86 91 97 99 101 104 103 103 106 105 105 139 175 186 187 186 190 196 198 200 204 207 207 206 205 205 207 209 209 208 208 209 210 210 210 212 213 215 217 218 217 217 218 221
213 213 211 227 240 250 246 251 284 230 271 321 321 311 306 303 291 248 107 47 353 338 330 349 22 23 17 14 4 9 59 85 80 24 359 357 8 23 35 44 56 70 79 85 92 96 95 94 91 87 85 84 83 98 135 166 176 179 187 195 198 203 210 213 214 214 212 210 209 210 211 210 209 210 211 211 213 214 215 216 217 217 217 217 218 221
210 204 197 208 228 240 231 233 283 226 290 323 320 313 309 300 286 74 73 0 335 329 327 354 21 25 24 25 20 26 46 58 64 46 18 12 23 29 31 38 47 58 71 81 89 92 89 86 85 83 79 78 80 85 98 115 121 118 131 153 167 189 210 216 219 220 219 216 212 210 212 212 212 212 213 214 215 215 216 216 216 216 216 216 217 219
212 201 206 216 226 235 213 194 286 217 319 332 323 320 328 344 81 58 35 332 327 327 335 2 17 20 25 30 28 26 38 43 44 42 30 24 29 29 28 35 42 49 62 73 81 86 88 86 84 82 77 73 75 78 85 91 88 81 80 79 62 42 44 194 219 222 222 220 217 213 212 213 214 214 215 216 216 215 215 216 216 216 216 215 216 217
333 301 350 320 290 288 268 72 63 164 337 337 329 337 10 34 55 27 355 329 330 337 348 5 14 16 18 23 22 20 29 34 31 31 29 26 28 29 28 31 37 40 49 60 68 78 85 85 81 78 75 73 71 72 76 79 76 69 63 50 32 26 30 29 15 242 222 219 218 217 214 213 214 214 215 217 217 215 215 216 215 215 215 214 214 216
357 0 37 345 345 0 25 38 36 200 336 350 352 15 27 23 25 17 356 339 343 349 355 359 4 9 12 14 15 19 27 27 21 19 24 23 22 25 26 29 32 34 41 50 57 69 79 83 82 78 75 74 72 68 67 70 68 60 51 36 24 22 21 12 7 4 282 220 217 217 215 214 214 214 215 216 217 216 216 214 213 213 213 213 213 214
12 4 17 4 346 353 30 44 12 21 26 16 22 28 16 11 11 2 348 350 359 355 354 354 351 357 7 11 13 20 25 21 13 12 18 17 13 18 23 25 29 32 39 48 56 64 74 81 83 80 76 73 72 69 62 60 59 53 41 28 19 15 12 7 4 359 352 294 226 220 217 215 214 213 214 214 215 215 215 213 211 210 211 212 211 212
19 9 24 26 336 317 245 131 50 28 18 18 34 37 21 10 3 350 341 350 2 355 353 356 348 347 0 9 13 17 17 13 9 9 13 15 12 11 13 17 25 32 37 45 54 63 71 77 79 79 77 73 70 68 62 57 55 50 38 24 16 9 3 3 2 353 348 339 291 237 222 217 214 213 213 212 212 213 214 213 211 210 209 209 210 211
15 13 23 6 333 313 242 95 37 7 313 337 41 44 29 8 354 347 344 345 353 355 352 353 349 344 355 8 10 6 4 5 6 5 9 16 15 8 7 9 15 25 32 38 52 64 70 75 76 76 76 73 67 64 60 54 50 44 33 22 15 6 359 359 358 353 344 335 320 277 231 220 215 211 209 208 208 211 213 213 212 211 209 208 208 209
356 5 13 351 331 303 271 328 352 333 225 161 100 59 40 10 351 348 345 341 347 351 344 344 352 349 350 0 3 360 358 358 359 360 3 12 14 7 4 1 359 15 31 38 49 60 65 67 71 73 72 68 62 56 51 46 41 32 23 18 13 5 359 358 354 349 341 331 323 297 240 223 215 205 199 199 201 204 207 209 211 211 211 211 210 208
344 360 357 328 310 286 273 333 356 354 105 139 108 57 41 17 352 347 344 338 341 345 337 338 352 353 349 354 356 356 356 353 351 354 358 4 7 2 357 355 354 6 25 39 48 56 59 60 63 66 65 61 56 49 43 39 34 25 16 13 10 4 1 356 349 345 341 331 320 295 240 216 205 195 188 184 184 186 190 198 205 208 211 214 214 213
352 356 347 324 305 298 321 348 353 339 287 225 244 7 20 8 348 342 337 328 329 333 329 331 346 350 349 352 354 354 350 343 341 348 354 356 357 352 348 352 358 5 21 43 54 58 60 65 69 69 66 60 54 47 41 33 27 21 14 10 7 4 360 354 347 342 339 329 308 266 213 194 188 185 180 175 171 166 161 167 186 197 202 208 212 214
352 336 328 320 301 295 305 314 313 292 273 271 277 292 329 344 331 322 316 310 311 315 316 323 347 352 346 344 347 346 339 328 329 338 347 348 347 345 346 353 359 4 17 41 56 57 57 66 73 72 67 61 54 47 38 29 24 19 12 9 9 6 359 353 347 339 333 326 290 219 193 182 178 175 171 168 165 159 149 137 137 157 179 194 203 209
Height
744 755 758 750 742 738 740 744 749 750 748 750 754 756 756 758 756 746 741 732 727 742 748 745 747 748 748 746 742 742 744 749 753 755 756 757 758 760 761 763 763 764 763 764 767 770 772 775 778 781 784 787 790 792 795 798 801 803 805 808 810 812 815 818 820 823 825 826 828 830 832 832 834 835 837 838 839 841 842 843 845 846 847 849 850 850
745 758 750 734 733 737 740 743 745 748 749 750 753 756 756 757 753 742 738 733 726 740 746 740 746 747 743 743 739 739 745 748 749 751 753 753 754 755 757 759 759 760 762 763 766 767 770 773 775 779 781 784 787 789 792 794 797 801 803 805 807 810 813 815 817 820 821 822 824 825 827 829 832 833 834 836 837 839 841 842 844 845 846 847 848 849
754 752 736 730 735 738 739 740 744 747 748 751 753 757 759 754 750 743 736 731 729 738 744 741 747 746 738 738 737 737 740 741 740 742 745 747 750 752 753 755 756 759 762 762 763 764 767 770 773 776 778 781 783 786 789 791 795 798 801 803 806 808 810 812 815 817 819 820 821 823 825 828 830 831 833 835 836 838 840 841 842 844 845 846 847 848
755 741 728 731 736 737 741 741 743 747 748 751 752 757 758 750 753 752 739 733 730 733 738 740 746 745 738 738 738 733 731 733 734 736 738 740 743 744 745 747 751 755 757 758 759 760 763 766 769 771 774 777 780 783 786 789 792 795 797 800 802 805 807 810 812 814 817 819 821 824 825 828 829 831 833 834 836 837 838 840 841 842 843 844 846 847
742 728 722 731 734 736 743 742 743 750 751 749 748 752 753 747 749 749 742 737 732 731 731 738 753 752 744 746 744 735 732 733 734 737 740 739 737 739 742 745 747 749 750 752 755 756 758 760 763 766 770 774 777 779 782 784 787 790 793 796 799 802 805 807 810 813 816 819 821 823 825 828 829 831 832 833 834 835 836 837 838 840 841 843 844 846
733 722 720 729 733 735 741 743 743 746 752 752 744 740 743 744 744 745 745 743 748 750 734 737 767 768 748 746 743 737 739 739 736 738 741 740 738 741 744 745 745 746 746 747 748 749 751 755 760 764 767 770 772 775 777 780 783 786 789 793 797 800 802 805 807 811 814 817 818 820 822 824 826 828 829 829 830 831 832 834 836 838 840 841 843 844
724 720 721 727 731 735 740 743 738 739 753 754 736 729 736 740 743 747 748 750 759 760 737 733 762 771 756 747 739 736 740 739 737 738 737 737 738 739 740 740 741 743 745 745 746 747 749 752 756 759 762 765 767 770 774 778 781 784 787 791 794 797 799 802 805 808 811 814 816 817 818 820 821 823 824 825 827 828 830 832 834 836 838 840 841 843
716 720 724 725 729 735 739 739 732 733 748 745 725 726 737 739 743 747 750 754 755 751 742 736 747 763 764 749 733 732 739 740 738 738 735 734 735 735 734 734 736 738 739 742 744 744 746 748 750 753 756 759 762 766 771 774 778 781 784 788 791 794 797 800 803 806 808 811 812 814 815 817 818 819 821 823 826 828 829 831 833 835 836 838 840 841
711 719 722 723 730 733 730 727 724 729 738 731 720 727 733 735 740 743 749 754 749 754 760 746 742 762 765 742 730 733 740 743 739 734 732 730 730 730 730 730 730 731 733 735 738 738 739 741 743 746 750 754 759 764 767 770 774 778 781 785 788 791 794 797 800 803 805 807 809 811 813 815 816 818 820 823 825 827 828 830 832 833 835 837 838 840
708 709 713 720 727 727 723 719 720 726 731 723 720 726 729 732 736 740 748 751 752 764 768 749 743 762 761 739 735 741 741 741 735 726 723 722 723 724 724 725 725 727 730 732 733 734 734 735 738 742 747 752 757 760 764 768 772 776 779 783 786 789 792 794 797 800 802 805 807 809 811 812 814 817 819 822 824 825 827 828 830 832 833 835 837 839
706 701 705 711 714 716 717 717 717 720 721 720 723 730 734 735 736 741 744 746 761 771 761 743 738 753 760 742 734 736 730 726 724 721 719 718 721 721 720 721 722 724 727 728 729 730 731 733 737 742 746 750 754 758 762 766 769 772 776 779 783 785 789 791 794 797 799 802 805 807 809 811 812 815 817 820 821 823 825 826 828 830 831 833 835 837
707 707 706 702 701 706 714 717 716 714 716 722 729 735 745 747 744 750 750 753 772 773 750 736 733 746 758 741 724 721 713 709 711 712 714 715 716 716 715 716 717 719 721 723 726 728 730 734 738 742 744 747 751 755 758 761 765 769 772 776 779 782 785 788 791 794 796 799 802 804 807 809 811 813 815 816 818 821 822 824 826 828 830 832 833 835
712 710 705 701 698 699 712 722 721 718 718 726 733 740 757 766 762 768 768 764 771 764 739 730 735 744 744 724 712 712 706 701 699 697 700 704 705 708 709 710 712 714 717 720 723 725 728 731 733 736 739 743 747 749 752 757 761 765 768 772 775 778 782 785 788 791 794 796 799 801 804 806 809 811 813 814 816 818 820 822 824 826 827 829 831 832
719 711 703 704 702 695 703 719 727 726 723 727 734 741 758 771 777 782 776 767 766 755 732 723 733 742 731 710 699 700 697 692 690 688 689 692 695 698 700 703 707 710 713 716 719 722 724 725 726 729 734 738 741 745 748 753 756 761 765 768 771 774 778 781 784 788 791 793 795 798 801 804 807 809 810 812 814 816 818 820 822 823 825 826 828 829
731 722 706 701 700 694 697 705 712 717 720 721 720 729 744 751 762 772 769 765 762 750 734 729 735 736 722 701 686 684 684 682 682 683 683 687 688 689 693 698 703 706 709 712 715 718 719 719 722 725 729 733 737 741 745 749 753 757 760 764 767 770 774 778 781 784 787 790 793 795 798 801 804 806 808 810 812 814 816 818 820 821 823 824 826 827
743 721 698 692 690 689 695 693 692 706 719 716 709 723 733 726 733 749 750 745 745 744 737 730 727 716 701 687 676 677 679 677 680 680 683 689 688 690 697 700 702 703 705 708 711 714 714 715 719 723 726 730 733 738 741 745 749 752 756 759 763 766 770 774 777 780 783 787 790 793 796 798 801 804 806 808 811 812 814 816 818 819 821 822 824 826
762 734 707 707 699 683 686 687 685 698 711 711 714 720 714 705 716 738 744 736 737 747 738 723 717 707 698 689 676 677 681 679 680 681 683 688 688 693 698 697 698 699 701 703 705 707 709 712 715 718 722 726 730 734 736 739 743 746 751 755 759 763 767 770 773 776 780 784 787 790 793 796 798 801 804 806 808 810 812 814 816 818 819 821 823 824
772 756 725 718 712 687 677 682 683 684 691 706 716 708 700 707 714 726 743 744 745 752 737 722 718 710 709 702 681 679 686 684 682 681 681 684 687 691 693 691 693 693 694 697 698 700 702 706 709 713 717 721 724 728 730 734 739 743 747 751 755 760 763 767 770 774 777 780 784 787 790 793 796 798 801 803 806 808 811 813 814 816 818 819 821 823
768 766 734 709 709 699 683 686 693 686 680 691 698 691 701 723 725 724 738 744 749 753 738 725 720 709 706 701 684 681 685 682 683 682 679 681 683 686 686 686 687 688 690 693 694 697 700 702 705 709 713 716 720 724 727 732 737 741 745 748 752 756 759 764 768 771 775 778 781 784 787 791 793 796 799 801 804 807 808 810 812 814 816 817 819 821
764 770 749 713 709 713 697 692 701 697 685 683 688 689 694 708 715 719 724 726 736 747 739 731 726 710 696 686 678 678 676 675 681 682 679 677 676 678 679 680 683 685 687 689 691 694 696 697 700 703 707 711 715 721 725 731 736 739 743 747 750 754 758 762 766 769 773 776 779 782 785 788 791 793 796 799 802 804 805 807 809 811 813 815 817 819
763 770 764 733 719 720 705 690 691 694 692 692 695 699 697 696 701 708 712 710 717 733 736 735 730 707 684 675 670 669 667 666 672 676 675 672 670 671 672 673 676 679 681 682 684 688 690 692 695 699 704 708 713 720 724 729 733 736 740 744 747 752 756 760 763 766 770 773 776 779 782 785 788 791 794 797 799 801 802 805 807 809 811 814 816 817
767 770 772 755 741 734 713 691 686 691 696 697 696 695 694 696 702 715 724 710 703 716 721 726 727 701 673 666 664 661 660 660 663 668 670 667 665 666 665 665 668 671 674 676 678 681 684 688 692 696 702 708 713 718 721 726 730 733 737 741 745 749 753 756 760 763 767 770 774 776 779 782 785 788 791 794 796 798 800 803 804 807 810 811 813 815
764 767 770 762 749 736 714 695 694 700 699 697 694 687 686 691 695 711 724 712 702 708 707 712 720 694 661 656 657 653 652 652 653 660 664 663 660 659 659 660 662 664 667 669 671 675 679 683 687 693 698 704 708 712 717 721 726 730 734 738 742 746 749 753 756 760 764 767 770 773 776 779 782 785 788 791 793 795 797 800 802 805 807 809 811 813
762 766 770 764 744 720 702 693 690 691 692 694 692 683 682 686 684 688 698 699 702 707 704 714 722 690 655 651 654 652 651 649 650 654 657 659 657 654 654 656 659 661 662 664 667 670 674 679 685 691 696 700 704 709 713 717 721 726 730 735 739 742 746 750 753 757 761 764 767 770 773 776 779 782 785 787 789 792 795 797 800 802 804 806 808 810
769 770 773 775 756 722 700 694 692 694 703 709 706 693 680 676 678 683 687 691 700 700 697 714 720 686 654 650 653 653 653 651 651 652 651 653 653 651 651 652 656 658 660 663 666 669 674 679 684 688 692 695 700 704 708 713 718 722 726 731 735 738 743 747 750 754 758 761 764 767 770 773 776 778 781 783 786 789 791 795 797 799 801 803 805 806
772 772 772 781 777 749 725 720 724 732 734 725 715 706 693 682 679 683 690 699 703 697 693 702 703 679 657 652 652 652 654 652 650 650 648 646 646 645 646 650 653 656 658 662 665 669 673 677 680 684 687 691 695 700 704 709 714 718 723 727 731 735 739 743 747 751 754 757 761 764 766 769 772 774 777 780 783 786 788 791 794 796 798 799 801 803
770 770 768 775 777 765 752 746 745 749 747 736 725 717 710 699 686 679 687 696 696 696 696 689 684 678 665 655 651 650 652 651 648 648 647 643 641 640 642 646 649 652 655 658 662 666 671 675 678 681 684 687 691 696 701 706 710 715 719 723 727 732 736 740 743 747 750 754 757 760 762 765 767 770 773 776 779 782 785 788 790 792 794 796 798 800
771 771 768 768 767 762 758 751 745 744 745 741 733 722 710 703 695 683 680 682 682 693 698 683 676 680 669 655 650 646 646 645 643 644 643 637 637 638 639 643 646 649 653 656 660 665 668 672 675 678 681 684 689 694 698 703 707 711 715 719 723 728 731 735 739 742 746 749 752 755 758 761 764 767 770 773 776 780 782 785 787 789 791 793 795 796
772 772 766 764 763 757 753 748 743 742 741 733 728 721 707 700 697 686 675 671 672 682 686 676 674 676 663 650 645 641 641 643 639 640 637 632 632 635 638 643 646 649 653 656 660 662 665 669 672 675 678 682 686 692 696 701 705 708 712 716 719 723 727 731 735 738 742 745 748 751 754 758 761 764 768 771 773 776 779 782 785 787 789 790 792 793
771 770 761 761 762 756 748 744 739 735 733 725 715 710 703 695 691 684 674 667 666 668 668 666 669 667 654 645 643 640 642 642 637 636 637 633 633 635 638 642 645 647 651 654 656 659 661 664 667 670 675 679 684 689 693 697 701 704 708 712 716 720 723 728 731 735 739 742 744 748 751 755 758 761 765 767 770 772 775 778 782 784 786 787 788 789
770 768 760 761 764 755 742 735 731 729 729 722 709 702 699 689 678 675 672 668 666 666 665 667 670 664 649 643 644 643 643 641 638 637 638 635 633 634 637 641 643 645 648 650 652 655 657 661 665 669 674 677 680 685 689 693 696 700 705 708 712 716 720 725 728 732 736 738 741 745 749 752 756 759 761 764 766 769 771 775 778 780 782 784 785 786
772 769 762 765 769 757 739 732 730 728 723 717 709 706 703 688 673 674 679 679 674 669 667 670 673 665 651 645 646 645 644 644 642 640 639 636 632 632 636 639 641 643 645 647 649 652 656 661 665 669 672 674 678 682 685 689 693 697 701 704 709 713 718 722 725 729 733 735 739 743 746 750 753 756 758 760 763 765 767 770 773 776 778 780 781 783
772 770 766 769 771 757 740 735 735 728 719 712 709 710 706 692 679 681 689 691 685 677 673 671 669 663 655 651 651 650 650 652 649 643 641 639 634 632 633 634 637 639 641 644 647 650 654 658 660 664 667 670 674 678 681 685 689 692 696 701 707 711 715 719 722 727 730 733 737 740 743 747 749 752 755 757 759 762 764 767 769 771 774 776 778 780
770 769 768 768 769 758 743 738 734 726 718 709 702 704 704 696 689 691 698 697 690 683 678 674 669 665 659 658 659 657 655 654 651 646 641 638 636 634 633 633 634 636 638 641 644 647 650 653 657 660 664 668 671 675 679 684 687 691 696 701 706 709 712 716 720 724 727 730 733 736 739 743 745 748 750 753 755 758 760 762 764 766 769 772 774 775
771 771 769 766 765 758 749 740 728 719 714 703 695 697 700 696 693 695 697 695 690 686 682 679 675 667 661 661 662 660 656 650 646 644 643 640 637 636 636 636 636 637 639 642 645 648 650 653 657 661 665 669 673 677 681 685 688 693 697 700 704 707 710 713 716 720 723 725 728 732 735 738 741 744 746 748 751 754 755 757 759 762 765 767 769 770
770 770 767 764 762 757 753 743 727 714 708 700 697 700 699 698 699 700 698 694 691 689 687 684 679 669 664 662 659 659 656 646 642 646 647 644 641 639 639 640 638 639 641 643 646 649 651 654 658 662 666 670 674 678 682 685 689 693 696 699 702 705 707 710 713 716 719 721 725 728 731 734 737 739 741 744 746 749 751 753 755 757 760 762 763 765
766 768 767 765 759 755 755 749 732 718 712 708 709 709 709 710 711 711 710 702 693 690 689 686 682 675 669 664 660 658 654 647 650 657 654 649 647 644 642 641 640 640 642 644 646 649 652 655 658 662 667 671 675 678 681 685 688 691 694 697 700 702 705 707 710 712 715 718 721 724 726 729 731 733 736 738 741 743 746 748 750 752 755 757 759 760
761 764 766 765 758 753 756 752 737 724 719 719 718 714 711 711 709 709 712 705 694 692 690 686 683 680 674 669 664 659 655 659 671 674 664 657 655 650 647 645 642 642 643 644 647 650 653 656 659 663 667 670 674 678 680 683 686 689 692 695 697 700 702 704 706 709 712 714 717 719 721 724 726 728 731 733 736 738 740 742 745 747 749 752 753 753
759 760 764 767 762 757 758 755 743 733 727 724 720 711 704 705 704 705 710 708 701 697 693 687 685 682 678 674 670 662 661 672 686 683 670 664 661 656 654 652 648 647 647 647 649 652 655 658 660 664 667 670 674 677 678 681 684 687 690 693 695 698 699 701 703 706 708 710 712 714 716 719 721 723 726 728 731 733 735 737 739 742 744 746 747 748
759 759 763 767 763 756 755 751 743 739 735 727 719 711 702 699 698 703 712 715 709 703 698 691 687 685 681 679 677 674 672 679 687 683 674 669 666 661 659 658 656 654 652 652 653 655 657 659 662 665 669 672 674 676 677 679 682 685 688 691 693 695 697 698 701 702 704 706 708 710 712 714 717 719 721 723 726 728 730 732 735 738 740 742 743 745
760 757 756 758 755 752 752 747 740 738 735 727 721 712 698 690 697 712 724 724 717 710 704 695 690 688 685 684 686 685 682 681 682 679 675 672 669 666 663 662 661 659 657 657 657 657 659 661 664 667 671 673 674 675 676 678 682 686 688 690 693 695 696 697 699 700 702 704 705 707 709 711 713 715 717 719 721 723 726 728 731 733 735 737 739 741
757 752 750 751 749 745 743 741 738 736 733 728 722 710 694 694 713 728 729 725 721 716 708 700 695 692 689 689 691 690 686 682 680 679 677 675 673 671 669 666 665 664 662 661 660 659 660 663 666 669 672 673 674 676 678 679 683 687 689 690 693 694 695 695 696 697 699 700 702 704 706 708 710 712 714 716 718 720 723 725 727 730 731 734 736 737
756 752 751 749 745 741 740 740 740 741 736 729 723 714 707 714 729 732 726 724 723 717 710 704 700 697 694 694 693 690 687 685 684 682 681 678 676 675 673 671 670 668 666 664 663 662 662 663 667 670 672 674 676 678 680 682 684 687 689 691 693 694 694 694 695 695 695 696 698 700 702 704 706 708 711 713 715 717 719 721 723 726 728 730 732 734
754 753 755 751 745 745 748 747 746 745 741 735 732 730 729 731 732 730 729 728 722 716 712 708 703 700 698 697 695 693 690 690 689 688 685 682 680 678 677 675 673 671 669 667 666 665 664 665 668 671 674 676 678 680 682 684 685 687 689 691 692 693 693 693 693 693 693 693 694 696 697 699 702 704 706 708 711 713 715 717 720 722 724 726 728 730
753 749 750 750 747 748 750 749 745 743 740 739 740 741 739 736 733 733 732 729 723 717 713 710 706 703 700 699 698 696 694 694 694 692 689 686 684 681 679 678 676 674 673 671 670 670 669 669 671 673 676 678 680 682 683 684 686 687 689 690 691 691 691 691 691 691 691 691 692 693 694 696 698 699 702 704 707 709 712 714 717 718 720 723 724 727
752 748 748 751 753 750 746 744 743 743 742 742 743 743 740 739 739 739 735 730 724 719 714 711 710 706 703 702 701 699 699 698 697 695 692 689 686 684 682 680 678 677 676 675 675 675 674 674 674 675 677 680 682 683 685 685 686 688 689 690 690 689 690 689 689 689 689 690 690 691 692 693 695 697 699 701 704 706 708 711 713 714 717 719 721 723
752 751 754 760 761 754 744 742 744 745 744 742 741 742 742 741 741 740 737 731 726 720 716 714 711 708 706 705 704 703 702 701 700 698 694 691 690 688 686 685 683 680 679 679 679 679 678 677 678 678 680 681 683 684 685 686 687 688 689 690 690 689 689 688 688 689 688 688 689 689 690 691 692 694 697 699 702 704 706 708 710 712 714 716 718 721
759 758 762 766 765 756 746 743 744 743 741 740 741 742 743 743 740 737 735 732 727 723 720 717 714 712 709 707 707 706 704 702 702 700 696 693 692 690 689 688 686 683 681 680 680 679 679 679 679 680 680 681 683 683 684 685 686 687 688 688 689 689 688 688 688 688 688 688 688 688 689 690 691 693 695 697 700 702 704 706 708 710 711 713 715 718
765 766 769 770 766 757 748 746 746 743 740 739 740 741 741 742 740 736 734 733 731 728 725 721 717 716 714 712 710 708 707 705 703 701 698 694 693 691 690 690 688 685 683 682 681 680 680 680 681 681 681 682 683 683 684 685 686 686 687 687 687 687 687 687 688 688 688 688 687 687 688 690 691 692 693 695 697 700 702 704 706 708 709 711 713 715
770 772 773 771 768 761 754 752 753 753 748 742 741 741 742 741 741 738 736 736 734 733 731 726 722 719 717 715 713 712 712 710 706 703 701 698 696 694 692 691 689 688 686 684 683 683 683 683 683 684 684 685 685 685 685 686 687 687 687 687 687 686 686 686 686 687 687 687 687 687 688 689 690 691 692 693 695 697 700 702 704 706 708 710 712 714
776 776 775 773 771 765 759 755 755 755 749 741 739 741 743 744 743 742 740 739 737 736 734 730 727 724 722 720 718 717 717 714 710 707 705 702 700 698 695 693 692 691 689 688 687 687 686 687 687 687 687 687 686 686 687 687 688 688 688 687 687 686 686 686 686 686 686 687 687 687 687 688 689 691 692 694 695 697 699 702 704 706 708 709 711 713